Flag for India Weather past 2 weeks in Ahmedabad, Gujarat, India

Now
81 °F

Fog.


Feels Like: 89 °F
Forecast: 78 / 88 °F
Wind: 3 mph from Southwest

Location: Ahmadabad Airport

Current Time: Jul 25, 2014 at 9:36:57 PM

Latest Report: Jul 25, 2014 at 8:40 PM


Visibility: 2 mi

Pressure: 29.62 "Hg

Humidity: 100%

Dew point: 81 °F

Location of AhmedabadLocation

Historic Weather in Ahmedabad — Graph

°F

Ahmedabad temperature yesterday

Maximum temperature yesterday: 79 °F (at 12:40 AM)
Minimum temperature yesterday: 75 °F (at 10:40 PM)
Average temperature yesterday: 78 °F

Past Weeks' High & Low Weather Summary

 TemperatureHumidityPressure
High104 °F (Jul 12, 3:40 PM)100% (Jul 17, 7:40 AM)29.65 "Hg (Jul 17, 7:40 AM)
Low75 °F (Jul 24, 10:40 PM)37% (Jul 11, 2:40 PM)29.39 "Hg (Jul 15, 3:40 PM)
Average86 °F77%29.53 "Hg
* Reported Jul 10 7:40 PM — Jul 25 7:40 PM, Ahmedabad, Weather by CustomWeather, © 2014

Note: Actual official high and low records may vary slightly from our data, if they occured in-between our weather recording intervals... More about our weather records

Advertising

Ahmedabad weather history for previous 24 hours

 ConditionsComfort  
Time TempWeatherWind HumidityBarometerVisibility
7:40 PM
Jul 25
81 °FDrizzle. Broken clouds.3 mph100%29.62 "Hg2 mi
6:40 PM82 °FLight rain. More clouds than sun.3 mph94%29.59 "Hg2 mi
5:40 PM82 °FBroken clouds.5 mph94%29.59 "Hg2 mi
4:40 PM84 °FBroken clouds.5 mph89%29.56 "Hg2 mi
3:40 PM86 °FBroken clouds.9 mph79%29.59 "Hg2 mi
1:40 PM84 °FBroken clouds.8 mph89%29.62 "Hg2 mi
11:40 AM82 °FMore clouds than sun.9 mph94%29.65 "Hg2 mi
10:40 AM82 °FMore clouds than sun.9 mph94%29.65 "Hg2 mi
8:40 AM79 °FDrizzle. More clouds than sun.9 mph100%29.62 "Hg1 mi
6:40 AM77 °FDrizzle. More clouds than sun.6 mph100%29.59 "Hg1 mi
5:40 AM77 °FPartly cloudy.7 mph100%29.59 "Hg2 mi
4:40 AM77 °FPartly cloudy.3 mph100%29.56 "Hg2 mi
2:40 AM77 °FLight rain. Mostly cloudy.7 mph94%29.59 "Hg2 mi
1:40 AM75 °FLight rain. Mostly cloudy.12 mph100%29.59 "Hg2 mi
12:40 AM75 °FLight rain. Mostly cloudy.14 mph100%29.62 "Hg2 mi
11:40 PM
Jul 24
75 °FLight rain. Mostly cloudy.14 mph100%29.62 "Hg2 mi
10:40 PM75 °FLight rain. Mostly cloudy.12 mph100%29.62 "Hg2 mi
9:40 PM77 °FLight rain. Mostly cloudy.14 mph94%29.59 "Hg2 mi
Weather by CustomWeather, © 2014

See weather overviewHow to use our weather pages